This is the latest recevied weather packets stored in our database for station/object NW5W-12. If no packets are shown the sender has not sent any weather packets the latest 10 day(s).
| Time | Temp. | Humidity | Pressure | Rain* | Wind** | Luminosity | Snow |
|---|---|---|---|---|---|---|---|
| 1778183442 | 19.44° C | 24% | 1019 hPa | 0 mm | - | - | - |
| 1778183142 | 18.89° C | 24% | 1019.1 hPa | 0 mm | - | - | - |
| 1778182842 | 18.89° C | 25% | 1019.1 hPa | 0 mm | - | - | - |
| 1778182542 | 18.33° C | 26% | 1019.2 hPa | 0 mm | - | - | - |
| 1778182242 | 18.33° C | 27% | 1019.2 hPa | 0 mm | - | - | - |
| 1778181942 | 18.33° C | 26% | 1019.3 hPa | 0 mm | - | - | - |
| 1778181642 | 17.78° C | 27% | 1019.3 hPa | 0 mm | - | - | - |
| 1778181342 | 17.78° C | 26% | 1019.3 hPa | 0 mm | - | - | - |
| 1778181043 | 17.22° C | 27% | 1019.4 hPa | 0 mm | - | - | - |
| 1778180742 | 17.22° C | 28% | 1019.4 hPa | 0 mm | - | - | - |
| 1778180442 | 17.22° C | 26% | 1019.4 hPa | 0 mm | - | - | - |
| 1778180142 | 17.22° C | 25% | 1019.5 hPa | 0 mm | - | - | - |
| 1778179842 | 17.78° C | 28% | 1019.5 hPa | 0 mm | - | - | - |
| 1778179542 | 16.67° C | 28% | 1019.5 hPa | 0 mm | - | - | - |
| 1778179242 | 16.11° C | 30% | 1019.6 hPa | 0 mm | - | - | - |
| 1778178942 | 15.56° C | 29% | 1019.6 hPa | 0 mm | - | - | - |
| 1778178643 | 15.56° C | 28% | 1019.6 hPa | 0 mm | - | - | - |
| 1778178342 | 14.44° C | 28% | 1019.7 hPa | 0 mm | - | - | - |
| 1778178042 | 14.44° C | 28% | 1019.7 hPa | 0 mm | - | - | - |
| 1778177742 | 14.44° C | 28% | 1019.7 hPa | 0 mm | - | - | - |
| 1778177442 | 14.44° C | 28% | 1019.7 hPa | 0 mm | - | - | - |
| 1778177142 | 15° C | 26% | 1019.8 hPa | 0 mm | - | - | - |
| 1778176842 | 15° C | 26% | 1019.8 hPa | 0 mm | - | - | - |
| 1778176542 | 15.56° C | 26% | 1019.8 hPa | 0 mm | - | - | - |
| 1778176242 | 15° C | 27% | 1019.8 hPa | 0 mm | - | - | - |
* Rain since midnight (hover to see other rain measurements)
** Current wind speed in m/s (hover to see current wind gust speed)